Lexington Weather

Lexington, Massachusetts, USA

52°F
9/29/2022 5:03am 
  • Lexington Conditions: Clear
  • Temperature: 51.8°F / 11.0°CColder 0.7°F than last hour.
  • Dew Point: 48.0°FDecreased 0.4°Fsince last hour.
  • Relative Humidity: 87%Increased 1.0% since last hour.
  • Wind: Calm, 10-min avg: Calm, gust: None
  • Barometer: 30.22 inRising 0.02  inHg/hr Rising Slowly
  • Visibility: 10 miles
  • Rain Today: 0.00 in
  •   

Regional Weather Roundup
for Boston, MA

        
000
ASUS41 KBOX 251510
RWRBOX

REGIONAL WEATHER ROUNDUP
NATIONAL WEATHER SERVICE BOSTON/NORTON MA
1100 AM EDT SUN SEP 25 2022

NOTE:  "FAIR" INDICATES FEW OR NO CLOUDS BELOW 12,000 FEET WITH NO 
SIGNIFICANT WEATHER AND/OR OBSTRUCTIONS TO VISIBILITY.

MAZALL-251600-
EASTERN MASSACHUSETTS
  
CITY           SKY/WX    TMP DP  RH WIND       PRES   REMARKS
BOSTON         PTSUNNY   64  47  53 SW12      29.78F                  
BEVERLY        PTSUNNY   63  49  60 SW6       29.77F                  
LAWRENCE       PTSUNNY   62  49  62 SW7       29.79F                  
BEDFORD        CLOUDY    64  50  60 SW8       29.76F                  
NORWOOD        CLOUDY    65  52  62 SW5       29.78F                  
MARSHFIELD     PTSUNNY   64  54  68 SW8       29.78F                  
PLYMOUTH       CLOUDY    67  54  63 SW10      29.79F                  
TAUNTON          N/A    N/A N/A N/A MISG      29.79F                  
NEW BEDFORD    PTSUNNY   65  55  70 SW6       29.79F                  
$$

MAZALL-251600-
CAPE COD AND THE ISLANDS
  
CITY           SKY/WX    TMP DP  RH WIND       PRES   REMARKS
FALMOUTH       NOT AVBL                                               
HYANNIS        PTSUNNY   68  52  56 SW16G22   29.79F                  
CHATHAM        PTSUNNY   69  55  60 SW6G21    29.81F                  
PROVINCETOWN   PTSUNNY   65  58  78 SW10      29.80F                  
NANTUCKET      PTSUNNY   71  59  65 SW16      29.82F                  
MARTHAS VNYRD  PTSUNNY   69  56  62 SW15      29.81F                  
$$
 
MAZALL-251600-
CENTRAL AND WESTERN MASSACHUSETTS
  
CITY           SKY/WX    TMP DP  RH WIND       PRES   REMARKS
WORCESTER      CLOUDY    59  48  67 SW10      29.78F                  
FITCHBURG      PTSUNNY   62  46  55 S5        29.78F                  
ORANGE         CLOUDY    60  49  66 S8        29.78F                  
SPRINGFIELD    CLOUDY    59  48  67 S10       29.75F                  
WESTFIELD      PTSUNNY   57  49  74 S6        29.77F                  
NORTH ADAMS    CLOUDY    57  49  74 E5        29.75F                  
PITTSFIELD     CLOUDY    53  48  83 W3        29.75F                  
$$
 
RIZALL-251600-
RHODE ISLAND
  
CITY           SKY/WX    TMP DP  RH WIND       PRES   REMARKS
PROVIDENCE     PTSUNNY   65  52  62 SW10      29.80F                  
NEWPORT        PTSUNNY   65  55  70 VRB6      29.79F                  
BLOCK ISLAND   PTSUNNY   67  54  63 SW14G21   29.80F                  
SMITHFIELD     PTSUNNY   62  53  72 SW7       29.79F                  
WESTERLY       PTSUNNY   68  56  65 SW9       29.79F                  
$$
 
CTZALL-251600-
CONNECTICUT
  
CITY           SKY/WX    TMP DP  RH WIND       PRES   REMARKS
BRADLEY INTL   PTSUNNY   63  51  65 S5        29.77F                  
HARTFORD       PTSUNNY   64  53  67 S6        29.78F                  
BRIDGEPORT     CLOUDY    67  54  63 SW8       29.77F                  
DANBURY        CLOUDY    65  50  58 S5        29.78F                  
GROTON         PTSUNNY   70  57  63 SW13      29.78F                  
NEW HAVEN      CLOUDY    69  57  65 VRB7      29.78F                  
CHESTER        FAIR      68  54  60 S8        29.79S                  
MERIDEN        PTSUNNY   63  52  67 VRB3      29.77F                  
WILLIMANTIC    PTSUNNY   58  51  78 CALM      29.79F                  
OXFORD         PTSUNNY   61  54  77 S7        29.79F                  
$$

MEZ002-015-021-024-NHZ003-005-008-011-012-014-VTZ005-008-251600-
NORTHERN NEW ENGLAND
  
CITY           SKY/WX    TMP DP  RH WIND       PRES   REMARKS
PORTLAND ME    MOSUNNY   61  48  62 S7        29.76F                  
BANGOR ME      PTSUNNY   62  49  62 S6        29.75S                  
CONCORD NH     PTSUNNY   57  47  69 MISG      29.76F                  
MANCHESTER NH  PTSUNNY   61  49  64 SW3       29.76F                  
NASHUA NH      PTSUNNY   62  54  74 VRB3      29.77F                  
PORTSMOUTH NH  PTSUNNY   62  47  59 SW8       29.76F                  
JAFFREY NH     PTSUNNY   60  48  64 CALM      29.78F                  
KEENE NH       CLOUDY    55  49  80 CALM        N/A                   
BURLINGTON VT  CLOUDY    58  47  66 S10       29.71F                  
MT. WASHINGTON MOSUNNY   41  34  75 W26         N/A  WCI  30          
$$

NYZ052-076-251600-
EASTERN NEW YORK
  
CITY           SKY/WX    TMP DP  RH WIND       PRES   REMARKS
ALBANY         CLOUDY    57  48  72 S7        29.72F                  
NEW YORK CITY  CLOUDY    68  51  54 S15       29.77F                  
$$
 
ANZALL-251600-
MARINE OBSERVATIONS
  
STATION/POSITION TIME  TEMP    WIND        PRES    VSBY  WAVE
                       AIR SEA DIR/SP/G                  HT/PER
                 (UTC) (F)     (DEG/KT/KT) (MB)    (MI)  (FT/S)
BOSTON BUOY      1450      61  210/ 10/ 12 1008.7F         1/13
BUZZARDS BAY     1400   65     230/ 16/ 19 1010.0F
NANTUCKET SOUND  1450   67 67  220/ 17/ 21 1009.2F         2/ 3
MASS BAY-STELLWA 1304   59 60  230/  6/  8 1008.5S  1 7/8  1
ISLE OF SHOALS   1400   55     230/  8/  8 1007.8F
S OF BLOCK IS    1456      67                N/A           4/10
$$

......................KEY.........................
  SKY/WX - SKY CONDITION/PRESENT WEATHER
  TMP    - TEMPERATURE IN FAHRENHEIT
  DWPT   - DEWPOINT IN FAHRENHEIT
  RH     - RELATIVE HUMIDITY IN PERCENT
  WIND   - DIRECTION AND SPEED IN MPH
  PRES   - MEAN SEA LEVEL PRESSURE IN INCHES OF HG
  WCI    - WIND CHILL INDEX
  VSB    - VISIBILITY IN MILES
  HX     - HEAT INDEX
  TC     - TEMPERATURE IN CELSIUS
  VRB    - VARIABLE WIND DIRECTION
  N/A    - NOT AVAILABLE
  
      

Other recent Regional Weather Roundups

Thu Sep 29, 4:10am

Thu Sep 29, 3:10am

Thu Sep 29, 2:10am

Thu Sep 29, 1:10am

Thu Sep 29, 12:10am

Wed Sep 28, 11:10pm

Wed Sep 28, 10:10pm

Wed Sep 28, 9:10pm

Wed Sep 28, 8:10pm

Wed Sep 28, 7:10pm

Wed Sep 28, 6:10pm

Wed Sep 28, 5:10pm

Wed Sep 28, 4:10pm

Wed Sep 28, 3:10pm

Wed Sep 28, 2:10pm

Wed Sep 28, 1:10pm

Wed Sep 28, 12:10pm

Wed Sep 28, 11:10am

Wed Sep 28, 10:10am

Wed Sep 28, 9:10am

Wed Sep 28, 8:10am

Wed Sep 28, 7:10am

Wed Sep 28, 6:10am

Wed Sep 28, 5:10am

Wed Sep 28, 4:10am

Wed Sep 28, 3:10am

Wed Sep 28, 2:10am

Wed Sep 28, 1:10am

Wed Sep 28, 12:10am

Tue Sep 27, 11:10pm

Tue Sep 27, 10:10pm

Tue Sep 27, 9:10pm

Tue Sep 27, 8:10pm

Tue Sep 27, 7:10pm

Tue Sep 27, 6:10pm

Tue Sep 27, 5:10pm

Tue Sep 27, 4:10pm

Tue Sep 27, 3:10pm

Tue Sep 27, 2:10pm

Tue Sep 27, 1:10pm

Tue Sep 27, 12:10pm

Tue Sep 27, 11:10am

Tue Sep 27, 10:10am

Tue Sep 27, 9:10am

Tue Sep 27, 8:10am

Tue Sep 27, 7:10am

Tue Sep 27, 6:10am

Tue Sep 27, 5:10am

Tue Sep 27, 4:10am

Tue Sep 27, 3:10am

Tue Sep 27, 2:10am

Tue Sep 27, 1:10am

Tue Sep 27, 12:10am

Mon Sep 26, 11:10pm

Mon Sep 26, 10:10pm

Mon Sep 26, 9:10pm

Mon Sep 26, 8:10pm

Mon Sep 26, 7:10pm

Mon Sep 26, 6:10pm

Mon Sep 26, 5:10pm

Mon Sep 26, 4:10pm

Mon Sep 26, 3:10pm

Mon Sep 26, 2:10pm

Mon Sep 26, 1:10pm

Mon Sep 26, 12:10pm

Mon Sep 26, 11:10am

Mon Sep 26, 10:10am

Mon Sep 26, 9:10am

Mon Sep 26, 8:10am

Mon Sep 26, 7:10am

Mon Sep 26, 6:10am

Mon Sep 26, 5:10am

Mon Sep 26, 4:10am

Mon Sep 26, 3:10am

Mon Sep 26, 2:10am

Mon Sep 26, 1:10am

Mon Sep 26, 12:10am

Sun Sep 25, 11:10pm

Sun Sep 25, 10:10pm

Sun Sep 25, 9:10pm

Sun Sep 25, 8:10pm

Sun Sep 25, 7:10pm

Sun Sep 25, 6:10pm

Sun Sep 25, 5:10pm

Sun Sep 25, 4:10pm

Sun Sep 25, 3:10pm

Sun Sep 25, 2:10pm

Sun Sep 25, 1:10pm

Sun Sep 25, 12:10pm

Sun Sep 25, 10:10am

Sun Sep 25, 9:10am

Sun Sep 25, 8:10am

Sun Sep 25, 7:10am

Sun Sep 25, 6:10am

Sun Sep 25, 5:10am

Sun Sep 25, 4:10am

Sun Sep 25, 3:10am

Sun Sep 25, 2:10am

Sun Sep 25, 1:10am

Sun Sep 25, 12:10am

Sat Sep 24, 11:10pm

Sat Sep 24, 10:10pm

Sat Sep 24, 9:10pm

Sat Sep 24, 8:10pm

Sat Sep 24, 7:10pm

Sat Sep 24, 6:10pm

Sat Sep 24, 5:10pm

Sat Sep 24, 4:10pm

Sat Sep 24, 3:10pm

Sat Sep 24, 2:10pm

Sat Sep 24, 1:10pm

Sat Sep 24, 12:10pm

Sat Sep 24, 11:10am

Sat Sep 24, 10:10am

Sat Sep 24, 9:10am

Sat Sep 24, 8:10am

Sat Sep 24, 7:10am

Sat Sep 24, 6:10am

Sat Sep 24, 5:10am

Sat Sep 24, 4:10am

Sat Sep 24, 3:10am

Sat Sep 24, 2:10am

Sat Sep 24, 1:10am

Sat Sep 24, 12:10am

Fri Sep 23, 11:10pm

Fri Sep 23, 10:10pm

Fri Sep 23, 9:10pm

Fri Sep 23, 8:10pm

Fri Sep 23, 7:10pm

Fri Sep 23, 6:10pm

Fri Sep 23, 5:10pm

Fri Sep 23, 4:10pm

Fri Sep 23, 3:10pm

Fri Sep 23, 2:10pm

Fri Sep 23, 1:10pm

Fri Sep 23, 12:10pm

Fri Sep 23, 11:10am

Fri Sep 23, 10:10am

Fri Sep 23, 9:10am

Fri Sep 23, 8:10am

Fri Sep 23, 7:10am

Fri Sep 23, 6:10am

Fri Sep 23, 5:10am

Fri Sep 23, 4:10am

Fri Sep 23, 3:10am

Fri Sep 23, 2:10am

Fri Sep 23, 1:10am

Fri Sep 23, 12:10am

Thu Sep 22, 11:10pm

Thu Sep 22, 10:10pm

Thu Sep 22, 9:10pm

Thu Sep 22, 8:10pm

Thu Sep 22, 7:10pm

Thu Sep 22, 6:10pm

Thu Sep 22, 5:10pm

Thu Sep 22, 4:10pm

Thu Sep 22, 3:10pm

Thu Sep 22, 2:10pm

Thu Sep 22, 1:10pm

Thu Sep 22, 12:10pm

Thu Sep 22, 11:10am

Thu Sep 22, 10:10am

Thu Sep 22, 9:10am

Thu Sep 22, 8:10am

Thu Sep 22, 7:10am

Thu Sep 22, 6:10am

Thu Sep 22, 5:10am

Meta data:

ID: aa98746b-1f7a-4d47-9ec5-fe40ab10e707
Link: https://api.weather.gov/products/aa98746b-1f7a-4d47-9ec5-fe40ab10e707